User: anonymous   Login
Location: Fairmont
(43.6520°N, 94.4610°W)
Time: 09:01:10
(UTC-05:00)
Language:

Cosmos-2242 - Orbit

View from above orbital plane
View from above orbital plane
View from above satellite
View from above satellite

Ground track
Ground track

The orbit data is extracted from the following two-line orbital elements,

1 22626U 93024A   16209.85151901  .00000249  00000-0  24635-4 0  9993
2 22626  82.5233 347.5327 0020559 115.6536 244.6808 14.87490911257934
Epoch (UTC): 27 July 2016 20:26:11
Eccentricity: 0.0020559
inclination: 82.5233°
perigee height: 591 km
apogee height: 620 km
right ascension of ascending node: 347.5327°
argument of perigee: 115.6536°
revolutions per day: 14.87490911
mean anomaly at epoch: 244.6808°
orbit number at epoch: 25793

The dashed part of the orbit path shows where the satellite is in the earth's shadow,  

DLR